Las Vegas, NM

12:58 AM MST on December 08, 2016 (GMT -0700)
Las Vegas Municipal

Weather History for KLVS - January, 2014

Change the Weather History Date:

Friday, January 10, 2014

  Actual Average Record
Temperature  
Mean Temperature 37 °F -  
Max Temperature 46 °F 45 °F 72 °F (1990)
Min Temperature 28 °F 17 °F -10 °F (1962)
Degree Days  
Heating Degree Days 28    
Moisture  
Dew Point 9 °F    
Average Humidity 31    
Maximum Humidity 49    
Minimum Humidity 20    
Precipitation  
Precipitation 0.00 in - - ()
Sea Level Pressure  
Sea Level Pressure 29.72 in    
Wind  
Wind Speed 21 mph (NW)    
Max Wind Speed 32 mph    
Max Gust Speed 45 mph    
Visibility 10 miles    
Events      
Averages and records for this station are not official NWS values.
T = Trace of Precipitation, MM = Missing Value Source: NWS Daily Summary

Daily Weather History Graph

Daily Weather History Graph

Search for Another Location

Airport or City:

Trip Planner

Search our weather history database for the weather conditions in past years. The results will help you decide how hot, cold, wet, or windy it might be!

Date:

Astronomy

Jan. 10, 2014 Rise Set
Actual Time 7:10 AM MST 5:06 PM MST
Civil Twilight 6:42 AM MST 5:34 PM MST
Nautical Twilight 6:11 AM MST 6:05 PM MST
Astronomical Twilight 5:40 AM MST 6:36 PM MST
Moon 1:09 PM MST (1/10) 2:23 AM MST (1/10)
Length of Visible Light 10h 51m
Length of Day
9h 55m
Waxing Gibbous, 75% of the Moon is Illuminated
Jan 10
Waxing Gibbous
Jan 15
Full
Jan 23
Last Quarter
Jan 30
New
Feb 6
First Quarter

Hourly Weather History & Observations

Time (MST) Temp. Windchill Dew Point Humidity Pressure Visibility Wind Dir Wind Speed Gust Speed Precip Events Conditions
12:53 AM 37.9 °F 27.1 °F 10.9 °F 33% 29.67 in 10.0 mi West 23.0 mph 29.9 mph N/A   Clear
1:53 AM 37.0 °F 26.7 °F 10.9 °F 34% 29.66 in 10.0 mi West 19.6 mph - N/A   Clear
2:53 AM 34.0 °F 22.4 °F 12.0 °F 40% 29.66 in 10.0 mi West 20.7 mph - N/A   Clear
3:53 AM 28.9 °F 20.4 °F 12.0 °F 49% 29.69 in 10.0 mi WSW 9.2 mph - N/A   Clear
4:53 AM 35.1 °F 22.7 °F 10.9 °F 37% 29.66 in 10.0 mi WNW 25.3 mph 40.3 mph N/A   Clear
5:53 AM 34.0 °F 21.8 °F 12.0 °F 40% 29.68 in 10.0 mi WNW 23.0 mph 38.0 mph N/A   Clear
6:53 AM 34.0 °F 22.4 °F 10.0 °F 37% 29.67 in 10.0 mi NW 20.7 mph 32.2 mph N/A   Clear
7:53 AM 34.0 °F 21.0 °F 10.0 °F 37% 29.73 in 10.0 mi NNW 26.5 mph 32.2 mph N/A   Clear
8:53 AM 37.0 °F 27.4 °F 7.0 °F 29% 29.70 in 10.0 mi North 17.3 mph 32.2 mph N/A   Clear
9:53 AM 42.1 °F 31.9 °F 6.1 °F 23% 29.72 in 10.0 mi NW 26.5 mph 33.4 mph N/A   Clear
10:53 AM 43.0 °F 33.3 °F 8.1 °F 24% 29.70 in 10.0 mi NNW 25.3 mph 35.7 mph N/A   Clear
11:53 AM 44.1 °F 34.2 °F 9.0 °F 24% 29.64 in 10.0 mi NW 28.8 mph 35.7 mph N/A   Clear
12:53 PM 46.0 °F 37.2 °F 8.1 °F 21% 29.61 in 10.0 mi NW 26.5 mph 36.8 mph N/A   Clear
1:53 PM 46.0 °F 37.8 °F 9.0 °F 22% 29.60 in 10.0 mi West 23.0 mph 32.2 mph N/A   Clear
2:53 PM 46.0 °F 36.9 °F 6.1 °F 20% 29.64 in 10.0 mi WNW 28.8 mph 44.9 mph N/A   Clear
3:53 PM 43.0 °F 34.0 °F 7.0 °F 23% 29.72 in 10.0 mi WNW 21.9 mph 32.2 mph N/A   Clear
4:53 PM 39.9 °F 30.8 °F 8.1 °F 27% 29.71 in 10.0 mi NW 18.4 mph 33.4 mph N/A   Clear
5:53 PM 37.9 °F 25.3 °F 10.0 °F 32% 29.74 in 10.0 mi NW 32.2 mph 40.3 mph N/A   Clear
6:53 PM 36.0 °F 28.0 °F 10.0 °F 34% 29.80 in 10.0 mi NNE 11.5 mph - N/A   Clear
7:53 PM 35.1 °F 27.4 °F 9.0 °F 34% 29.84 in 10.0 mi North 10.4 mph 25.3 mph N/A   Clear
8:53 PM 36.0 °F 25.0 °F 10.0 °F 34% 29.84 in 10.0 mi NW 20.7 mph 28.8 mph N/A   Clear
9:53 PM 36.0 °F 25.0 °F 10.9 °F 36% 29.86 in 10.0 mi WNW 20.7 mph 29.9 mph N/A   Clear
10:53 PM 36.0 °F 26.0 °F 10.0 °F 34% 29.87 in 10.0 mi WNW 17.3 mph 25.3 mph N/A   Clear
11:53 PM 37.9 °F 34.4 °F 9.0 °F 30% 29.87 in 10.0 mi Variable 4.6 mph - N/A   Clear